STARLINK-11189, 60188

Orbit data source: Space-Track

STARLINK-11189, 60188 is a payload satellite owned by SpaceX/Seattle (US) in LEO that was launched on Wed, 03 Jul 2024 UTC via an FALCON 9 launch vehicle from the Air Force Eastern Test Range (AFETR). Payload-class satellites include a variety of spacecraft equipped with specific instruments for various scientific and technological missions. These include communications satellites like Starlink; space stations such as the ISS; scientific satellites like the Hubble; Earth observation satellites from companies like Planet Labs, Umbra, and HawkEye 360; GPS; miniature CubeSats for education and research; and military/defense satellites.

Loading next visibility...
Identifier
60188, 2024-124F
Orbit
LEO
Last TLE update
20 hours ago
Origin
Manufacturer
SpaceX/Seattle
Mission
Operational Commercial Communications
Bus & Motor
STARLINK V2M, Unknown motor
Mass
730 kg wet, ~700 kg dry
Launch date (UTC)
2024-07-03 (1 year ago)
Launch vehicle
FALCON 9
Launch site
Air Force Eastern Test Range (AFETR)
Object type
Payload
Rocket body
Debris
Shape & HBR
Box + 2 Pan, 29 m
Radar Cross Section
36.964 m², Large (>1 m²)

Expand to show TLE details & history

TLE from 20 hours ago
0 STARLINK-11189
1 60188U 24124F   25191.52092861 -.00003120  00000-0 -20920-4 0  9992
2 60188  53.1597 275.4357 0000578  44.2226 315.8838 15.69698319 58497
Epoch: 2025-07-10T12:30Z
TLE epoch observation values (Epoch: 2025-07-10T12:30:08.231Z)
Latitude
-0.00005°
Longitude
159.21535°
Altitude
360.396 km
Speed
7.694 km/s
True Right ascension
18h 21m 44s
True Declination
0° 00' 00"
Sunlit
Object was in full shadow at epoch
Visualization orbit readout
Latitude
35.59475°
Longitude
-172.68075°
Altitude
362.073 km
Speed
7.697 km/s
Apparent Right ascension
16h 51m 59s
Apparent Declination
-9° 18' 44"
Sunlit
Object is in full shadow
Visualization observer readout
Local Sidereal Time
20:51:24
Azimuth
242.612° WSW
Elevation
16.038°
Doppler factor
1
Orbital elements
Apogee altitude
360.41 km
Perigee altitude
359.631 km
Semi-major axis
6,738.158 km
Eccentricity
0.00006
Inclination
53.1597°
RAAN
275.4357°
Arg. of periapsis
44.2226°
True anomaly
Unknown
Mean anomaly
315.8838°
Eccentric anomaly
Unknown
Mean motion
3.92402 °/min
Orbital period
91.74 mins
BSTAR
-0.00002092
Loading maneuver chart data...
Loading SW <> Apogee altitude chart data...
Loading historical data...
Loading historical data...
Loading historical data...
Loading historical data...
Loading historical data...
Loading historical data...
Loading historical data...

STARLINK-11189 Visibility forecast

Observer location: undefined°, undefined°

Span
Click to sort rows by Start time (UTC) header in descending order
Start Az.
Max El. time (UTC)
Max El. Az.
Max El.
End time (UTC)
End Az.
5 mins2025-07-11 08:33:50.798Z242.08° WSW2025-07-11 08:35:50.798Z292.847° NW40.58°2025-07-11 08:38:50.798Z43.717° NE
|